EW4767 Weather Reports


time (UTC)temp
C
wind
direction
speed
KPH
gust
KPH
rain 1hr
cm
rain 24hr
cm
rain mn
cm
humidity
%
barometer
mb
20260504081510 5 290 0.0 0.0 0.00 0.00 0.00 86 1009.0
20260504050019 5 294 0.0 0.0 0.00 0.00 0.00 82 1009.6
20260504044514 5 294 0.0 0.0 0.00 0.00 0.00 83 1009.7
20260504043012 5 294 0.0 0.0 0.00 0.00 0.00 80 1009.8
20260504041518 5 277 0.0 0.0 0.00 0.00 0.00 81 1010.1
20260504040022 5 277 0.0 0.0 0.00 0.00 0.00 81 1010.1
20260504034520 4 277 0.0 0.0 0.00 0.00 0.00 82 1010.1
20260504033019 3 277 0.0 0.0 0.00 0.00 0.00 83 1009.9
20260504031516 2 277 0.0 0.0 0.00 0.00 0.00 82 1009.9
20260504030012 3 277 0.0 0.0 0.00 0.00 0.00 78 1009.7
20260504024507 3 277 0.0 3.2 0.00 0.00 0.00 75 1009.7
20260504023023 4 263 0.0 4.8 0.00 0.00 0.00 71 1009.7
20260504021524 4 296 0.0 3.2 0.00 0.00 0.00 68 1009.7
20260504020021 5 275 0.0 0.0 0.00 0.00 0.00 61 1009.7
20260504014516 7 304 0.0 6.4 0.00 0.00 0.00 56 1009.8
20260504013014 6 5 0.0 3.2 0.00 0.00 0.00 61 1009.9
20260504011511 6 302 0.0 3.2 0.00 0.00 0.00 55 1009.8
20260504010024 7 300 0.0 3.2 0.00 0.00 0.00 51 1009.6
20260504004526 8 312 1.6 6.4 0.00 0.00 0.00 44 1009.3
20260504003022 10 275 6.4 14.5 0.00 0.00 0.00 42 1009.2
20260504001520 10 288 3.2 9.7 0.00 0.00 0.00 41 1009.0
20260504000016 10 327 1.6 4.8 0.00 0.00 0.00 40 1008.9
20260503234514 11 298 8.0 17.7 0.00 0.00 0.00 37 1008.6
20260503233023 11 318 8.0 14.5 0.00 0.00 0.00 36 1008.4
20260503231526 11 314 6.4 20.9 0.00 0.00 0.00 34 1008.2
20260503230026 11 290 12.9 27.4 0.00 0.00 0.00 33 1008.0
20260503224523 12 277 9.7 19.3 0.00 0.00 0.00 32 1007.9
20260503223019 12 305 12.9 30.6 0.00 0.00 0.00 30 1007.8
20260503221516 13 301 11.3 24.1 0.00 0.00 0.00 28 1007.5
20260503220017 12 349 4.8 29.0 0.00 0.00 0.00 28 1007.4
20260503214527 13 306 6.4 20.9 0.00 0.00 0.00 28 1007.4
20260503213029 12 360 9.7 22.5 0.00 0.00 0.00 29 1007.5
20260503211533 13 325 11.3 24.1 0.00 0.00 0.00 29 1007.5
20260503210022 13 271 12.9 27.4 0.00 0.00 0.00 29 1007.4
20260503204521 12 232 8.0 24.1 0.00 0.00 0.00 31 1007.6
20260503203018 12 316 8.0 24.1 0.00 0.00 0.00 33 1007.9
20260503201516 11 275 8.0 17.7 0.00 0.00 0.00 34 1008.0
20260503200012 11 326 6.4 17.7 0.00 0.00 0.00 36 1008.2
20260503194509 11 36 9.7 24.1 0.00 0.00 0.00 36 1008.5
20260503193008 11 322 12.9 25.7 0.00 0.00 0.00 39 1008.8
20260503191507 11 295 8.0 25.7 0.00 0.00 0.00 39 1008.8
20260503190039 10 321 9.7 29.0 0.00 0.00 0.00 38 1009.2
20260503184520 10 307 8.0 19.3 0.00 0.00 0.00 39 1009.2
20260503183017 11 28 9.7 20.9 0.00 0.00 0.00 39 1009.4
20260503181516 10 279 8.0 24.1 0.00 0.00 0.00 41 1009.3
20260503180015 10 5 4.8 22.5 0.00 0.00 0.00 41 1009.5
20260503174508 10 65 8.0 19.3 0.00 0.00 0.00 40 1009.6
20260503173007 9 310 9.7 19.3 0.00 0.00 0.00 41 1009.7
20260503171533 8 315 6.4 24.1 0.00 0.00 0.00 42 1009.9